QPF
0.03 0.03 0.03 0.02 0.01 0.01 0.02 0.02 0.01 0.01 0.01 0.01 0.01 0.01 0.01 0.01 0.01 0.01 0.01 0.01 0.01 0.01 0.02 0.03 0.03 0.03 0.02 0.02 0.02 0.02 0.02 0.02 0.02 0.01 0.01 0.01 0.01 0.01 0.01 0.01 0.01 0.00 0.00
0.03 0.04 0.04 0.03 0.02 0.02 0.03 0.03 0.02 0.02 0.01 0.01 0.01 0.01 0.02 0.01 0.01 0.01 0.01 0.01 0.01 0.01 0.02 0.04 0.04 0.04 0.03 0.04 0.04 0.04 0.03 0.02 0.02 0.02 0.01 0.01 0.01 0.01 0.01 0.01 0.01 0.01 0.01
0.02 0.03 0.04 0.04 0.04 0.03 0.03 0.04 0.04 0.03 0.02 0.01 0.01 0.01 0.01 0.02 0.02 0.02 0.02 0.01 0.01 0.01 0.02 0.04 0.05 0.05 0.04 0.04 0.04 0.04 0.03 0.03 0.03 0.03 0.03 0.03 0.02 0.01 0.01 0.01 0.01 0.01 0.01
0.01 0.01 0.02 0.03 0.03 0.03 0.03 0.03 0.04 0.03 0.01 0.01 0.01 0.01 0.01 0.01 0.02 0.03 0.03 0.02 0.02 0.01 0.02 0.03 0.05 0.06 0.06 0.05 0.05 0.05 0.05 0.04 0.03 0.04 0.04 0.05 0.04 0.03 0.01 0.01 0.01 0.01 0.01
0.00 0.00 0.01 0.02 0.02 0.02 0.02 0.03 0.03 0.02 0.02 0.02 0.01 0.01 0.01 0.01 0.01 0.02 0.02 0.03 0.03 0.03 0.03 0.02 0.03 0.04 0.05 0.05 0.05 0.07 0.07 0.04 0.03 0.03 0.03 0.03 0.03 0.03 0.03 0.02 0.02 0.02 0.01
0.00 0.00 0.00 0.01 0.02 0.02 0.01 0.01 0.02 0.02 0.02 0.02 0.02 0.02 0.01 0.01 0.01 0.01 0.01 0.02 0.02 0.03 0.03 0.03 0.03 0.03 0.04 0.05 0.05 0.06 0.07 0.05 0.04 0.03 0.03 0.03 0.03 0.03 0.03 0.03 0.03 0.02 0.02
0.00 0.00 0.00 0.00 0.02 0.02 0.02 0.01 0.01 0.01 0.01 0.02 0.02 0.03 0.02 0.02 0.02 0.02 0.02 0.02 0.02 0.02 0.02 0.03 0.03 0.04 0.05 0.06 0.06 0.07 0.08 0.07 0.07 0.06 0.05 0.04 0.04 0.04 0.04 0.04 0.04 0.04 0.03
0.00 0.00 0.00 0.00 0.01 0.02 0.02 0.02 0.01 0.01 0.01 0.02 0.02 0.03 0.04 0.04 0.03 0.03 0.03 0.03 0.03 0.03 0.02 0.03 0.03 0.04 0.05 0.06 0.07 0.07 0.07 0.07 0.07 0.07 0.06 0.05 0.05 0.04 0.04 0.05 0.05 0.06 0.05
0.00 0.00 0.00 0.00 0.01 0.01 0.02 0.01 0.01 0.01 0.01 0.01 0.01 0.03 0.03 0.04 0.04 0.04 0.04 0.04 0.04 0.05 0.05 0.05 0.05 0.05 0.05 0.06 0.07 0.08 0.08 0.07 0.06 0.06 0.06 0.06 0.06 0.05 0.04 0.04 0.05 0.06 0.06
0.00 0.00 0.00 0.00 0.00 0.01 0.02 0.02 0.02 0.01 0.01 0.01 0.01 0.01 0.02 0.02 0.03 0.03 0.03 0.03 0.03 0.03 0.04 0.04 0.04 0.04 0.04 0.04 0.05 0.06 0.07 0.07 0.07 0.07 0.06 0.06 0.06 0.06 0.06 0.05 0.04 0.05 0.05
0.00 0.00 0.00 0.00 0.00 0.00 0.01 0.02 0.02 0.02 0.02 0.02 0.01 0.01 0.01 0.01 0.01 0.02 0.01 0.01 0.03 0.03 0.02 0.02 0.03 0.03 0.04 0.04 0.04 0.05 0.06 0.06 0.07 0.07 0.07 0.07 0.06 0.06 0.06 0.06 0.05 0.04 0.04
0.00 0.00 0.00 0.00 0.00 0.00 0.00 0.01 0.01 0.01 0.01 0.01 0.01 0.01 0.01 0.01 0.01 0.02 0.02 0.01 0.02 0.02 0.02 0.02 0.02 0.02 0.03 0.03 0.03 0.04 0.04 0.05 0.06 0.08 0.08 0.07 0.06 0.06 0.06 0.07 0.07 0.06 0.04
0.00 0.00 0.00 0.00 0.00 0.00 0.00 0.00 0.01 0.01 0.01 0.01 0.01 0.01 0.01 0.02 0.02 0.02 0.02 0.02 0.02 0.02 0.03 0.02 0.02 0.02 0.02 0.02 0.02 0.02 0.03 0.03 0.04 0.06 0.07 0.07 0.06 0.06 0.06 0.06 0.06 0.06 0.05
0.01 0.00 0.00 0.00 0.00 0.01 0.02 0.01 0.01 0.01 0.01 0.01 0.01 0.01 0.02 0.02 0.02 0.02 0.03 0.03 0.03 0.02 0.03 0.02 0.02 0.02 0.02 0.02 0.02 0.03 0.03 0.03 0.03 0.04 0.04 0.05 0.05 0.05 0.05 0.06 0.06 0.06 0.05
0.00 0.00 0.00 0.00 0.01 0.02 0.02 0.02 0.02 0.01 0.01 0.01 0.01 0.02 0.02 0.02 0.02 0.02 0.03 0.04 0.04 0.03 0.03 0.03 0.02 0.02 0.02 0.02 0.01 0.01 0.01 0.02 0.02 0.03 0.03 0.03 0.03 0.03 0.04 0.05 0.06 0.06 0.05
0.00 0.00 0.00 0.00 0.00 0.00 0.01 0.01 0.01 0.01 0.01 0.01 0.01 0.02 0.02 0.02 0.02 0.02 0.02 0.03 0.03 0.03 0.02 0.02 0.02 0.02 0.03 0.02 0.02 0.01 0.01 0.02 0.02 0.02 0.03 0.03 0.03 0.03 0.03 0.03 0.04 0.06 0.06
0.00 0.00 0.00 0.00 0.00 0.00 0.00 0.00 0.00 0.01 0.01 0.01 0.01 0.02 0.02 0.01 0.02 0.02 0.02 0.02 0.03 0.02 0.02 0.01 0.01 0.01 0.02 0.02 0.02 0.02 0.02 0.01 0.01 0.02 0.02 0.03 0.03 0.03 0.03 0.03 0.04 0.04 0.05
0.00 0.00 0.00 0.00 0.00 0.00 0.00 0.00 0.00 0.00 0.01 0.01 0.01 0.01 0.01 0.01 0.01 0.01 0.02 0.01 0.01 0.02 0.01 0.01 0.01 0.01 0.01 0.01 0.01 0.02 0.02 0.02 0.02 0.02 0.02 0.02 0.03 0.03 0.03 0.03 0.03 0.03 0.03
0.00 0.00 0.00 0.00 0.00 0.00 0.00 0.00 0.00 0.00 0.00 0.00 0.00 0.00 0.00 0.00 0.00 0.01 0.01 0.01 0.01 0.02 0.01 0.01 0.01 0.01 0.01 0.02 0.01 0.01 0.02 0.02 0.02 0.02 0.02 0.02 0.03 0.04 0.04 0.03 0.03 0.03 0.02
0.00 0.00 0.00 0.00 0.00 0.00 0.00 0.00 0.00 0.00 0.00 0.00 0.00 0.00 0.00 0.01 0.01 0.01 0.02 0.01 0.01 0.02 0.02 0.02 0.02 0.02 0.02 0.02 0.02 0.02 0.02 0.02 0.03 0.04 0.04 0.03 0.03 0.04 0.04 0.04 0.04 0.03 0.03
0.00 0.00 0.00 0.00 0.00 0.00 0.00 0.00 0.00 0.00 0.00 0.00 0.00 0.00 0.00 0.01 0.01 0.02 0.02 0.03 0.02 0.03 0.03 0.03 0.03 0.02 0.02 0.02 0.02 0.02 0.02 0.02 0.03 0.03 0.05 0.06 0.05 0.04 0.03 0.03 0.03 0.04 0.03
0.00 0.00 0.00 0.00 0.00 0.00 0.00 0.00 0.00 0.00 0.00 0.00 0.00 0.00 0.00 0.00 0.01 0.01 0.02 0.03 0.03 0.03 0.04 0.04 0.04 0.03 0.02 0.02 0.02 0.03 0.04 0.05 0.04 0.03 0.03 0.04 0.05 0.05 0.04 0.03 0.02 0.02 0.02
0.00 0.00 0.00 0.01 0.01 0.00 0.00 0.01 0.00 0.00 0.00 0.00 0.00 0.00 0.00 0.01 0.01 0.01 0.01 0.02 0.02 0.03 0.03 0.04 0.04 0.04 0.04 0.03 0.03 0.03 0.04 0.04 0.04 0.03 0.04 0.05 0.05 0.06 0.05 0.05 0.05 0.03 0.03
0.00 0.01 0.01 0.00 0.00 0.00 0.01 0.01 0.01 0.00 0.00 0.00 0.00 0.00 0.01 0.01 0.01 0.02 0.01 0.01 0.02 0.02 0.02 0.03 0.03 0.03 0.03 0.03 0.04 0.05 0.06 0.06 0.05 0.04 0.04 0.06 0.06 0.06 0.06 0.06 0.07 0.06 0.04
0.01 0.01 0.00 0.00 0.00 0.00 0.00 0.00 0.01 0.00 0.00 0.00 0.00 0.01 0.01 0.01 0.02 0.02 0.01 0.02 0.02 0.03 0.03 0.03 0.03 0.03 0.03 0.04 0.04 0.05 0.06 0.06 0.06 0.05 0.04 0.04 0.06 0.06 0.06 0.05 0.06 0.07 0.06
0.01 0.01 0.00 0.00 0.00 0.00 0.00 0.00 0.01 0.01 0.01 0.00 0.01 0.01 0.01 0.01 0.02 0.02 0.02 0.02 0.02 0.03 0.03 0.02 0.03 0.03 0.03 0.03 0.04 0.04 0.04 0.05 0.05 0.05 0.04 0.04 0.04 0.05 0.06 0.05 0.04 0.04 0.05
MSLP
1019.32 1019.34 1019.31 1019.25 1019.19 1019.14 1019.10 1019.07 1019.03 1018.97 1018.89 1018.77 1018.63 1018.46 1018.29 1018.12 1017.95 1017.78 1017.61 1017.42 1017.21 1016.98 1016.73 1016.47 1016.22 1016.01 1015.84 1015.75 1015.73 1015.79 1015.92 1016.10 1016.32 1016.56 1016.80 1017.03 1017.23 1017.40 1017.54 1017.64 1017.71 1017.75 1017.76
1019.57 1019.60 1019.58 1019.55 1019.50 1019.46 1019.42 1019.38 1019.32 1019.23 1019.10 1018.94 1018.73 1018.51 1018.28 1018.05 1017.84 1017.64 1017.43 1017.22 1017.00 1016.75 1016.48 1016.19 1015.90 1015.63 1015.41 1015.25 1015.16 1015.16 1015.24 1015.39 1015.59 1015.83 1016.08 1016.32 1016.55 1016.75 1016.91 1017.04 1017.12 1017.18 1017.21
1019.71 1019.74 1019.75 1019.75 1019.74 1019.73 1019.71 1019.67 1019.59 1019.48 1019.30 1019.09 1018.83 1018.55 1018.27 1017.99 1017.73 1017.49 1017.25 1017.02 1016.78 1016.52 1016.23 1015.92 1015.61 1015.31 1015.05 1014.84 1014.69 1014.63 1014.65 1014.75 1014.92 1015.12 1015.36 1015.61 1015.84 1016.05 1016.23 1016.38 1016.49 1016.57 1016.63
1019.74 1019.79 1019.83 1019.87 1019.91 1019.93 1019.94 1019.91 1019.83 1019.69 1019.49 1019.23 1018.93 1018.61 1018.28 1017.96 1017.65 1017.37 1017.10 1016.84 1016.58 1016.30 1016.00 1015.69 1015.37 1015.05 1014.76 1014.52 1014.34 1014.22 1014.19 1014.23 1014.34 1014.50 1014.70 1014.91 1015.13 1015.33 1015.52 1015.67 1015.80 1015.91 1015.99
1019.71 1019.77 1019.84 1019.93 1020.01 1020.08 1020.12 1020.11 1020.03 1019.88 1019.66 1019.38 1019.05 1018.70 1018.34 1017.98 1017.64 1017.32 1017.02 1016.72 1016.43 1016.13 1015.81 1015.49 1015.17 1014.86 1014.56 1014.30 1014.09 1013.94 1013.86 1013.83 1013.87 1013.96 1014.10 1014.26 1014.43 1014.61 1014.78 1014.94 1015.08 1015.20 1015.31
1019.67 1019.74 1019.84 1019.96 1020.09 1020.20 1020.27 1020.28 1020.21 1020.07 1019.85 1019.56 1019.23 1018.86 1018.49 1018.11 1017.75 1017.39 1017.04 1016.70 1016.36 1016.03 1015.69 1015.36 1015.04 1014.72 1014.44 1014.18 1013.96 1013.78 1013.64 1013.56 1013.52 1013.53 1013.58 1013.66 1013.77 1013.90 1014.04 1014.18 1014.32 1014.45 1014.56
1019.66 1019.73 1019.86 1020.01 1020.18 1020.32 1020.41 1020.44 1020.39 1020.26 1020.05 1019.78 1019.46 1019.11 1018.74 1018.35 1017.97 1017.58 1017.18 1016.79 1016.40 1016.01 1015.64 1015.29 1014.96 1014.65 1014.37 1014.13 1013.90 1013.70 1013.53 1013.39 1013.27 1013.19 1013.15 1013.15 1013.18 1013.24 1013.33 1013.44 1013.56 1013.68 1013.79
1019.71 1019.79 1019.93 1020.10 1020.29 1020.45 1020.56 1020.60 1020.57 1020.45 1020.26 1020.02 1019.73 1019.41 1019.06 1018.68 1018.29 1017.87 1017.42 1016.97 1016.52 1016.08 1015.66 1015.27 1014.93 1014.63 1014.37 1014.13 1013.92 1013.71 1013.51 1013.32 1013.14 1012.97 1012.84 1012.74 1012.69 1012.68 1012.71 1012.77 1012.86 1012.95 1013.04
1019.81 1019.90 1020.05 1020.23 1020.42 1020.59 1020.70 1020.75 1020.72 1020.62 1020.46 1020.25 1020.01 1019.72 1019.40 1019.04 1018.64 1018.20 1017.72 1017.20 1016.69 1016.19 1015.72 1015.31 1014.95 1014.66 1014.41 1014.20 1014.00 1013.80 1013.58 1013.35 1013.12 1012.88 1012.66 1012.48 1012.34 1012.26 1012.22 1012.23 1012.27 1012.32 1012.37
1019.96 1020.05 1020.20 1020.38 1020.56 1020.72 1020.82 1020.85 1020.83 1020.74 1020.60 1020.43 1020.22 1019.97 1019.69 1019.35 1018.96 1018.49 1017.98 1017.43 1016.86 1016.31 1015.81 1015.37 1015.01 1014.73 1014.51 1014.32 1014.15 1013.96 1013.75 1013.50 1013.22 1012.94 1012.65 1012.40 1012.19 1012.04 1011.94 1011.89 1011.87 1011.87 1011.87
1020.11 1020.20 1020.35 1020.51 1020.67 1020.79 1020.87 1020.88 1020.84 1020.76 1020.63 1020.48 1020.30 1020.09 1019.84 1019.53 1019.14 1018.68 1018.15 1017.58 1016.99 1016.42 1015.90 1015.47 1015.12 1014.86 1014.67 1014.52 1014.38 1014.22 1014.02 1013.77 1013.47 1013.15 1012.83 1012.52 1012.26 1012.05 1011.90 1011.79 1011.72 1011.66 1011.59
1020.20 1020.30 1020.44 1020.58 1020.70 1020.79 1020.83 1020.81 1020.75 1020.65 1020.52 1020.38 1020.22 1020.04 1019.81 1019.52 1019.16 1018.72 1018.20 1017.63 1017.05 1016.50 1016.00 1015.59 1015.28 1015.07 1014.92 1014.82 1014.71 1014.58 1014.40 1014.16 1013.86 1013.52 1013.17 1012.84 1012.54 1012.30 1012.10 1011.95 1011.82 1011.70 1011.57
1020.20 1020.31 1020.43 1020.54 1020.63 1020.68 1020.68 1020.62 1020.53 1020.40 1020.27 1020.12 1019.97 1019.81 1019.60 1019.34 1019.01 1018.60 1018.12 1017.60 1017.07 1016.56 1016.12 1015.77 1015.52 1015.36 1015.27 1015.21 1015.15 1015.05 1014.89 1014.66 1014.36 1014.02 1013.67 1013.32 1013.01 1012.74 1012.52 1012.33 1012.16 1012.00 1011.81
1020.09 1020.20 1020.31 1020.40 1020.45 1020.46 1020.42 1020.33 1020.20 1020.05 1019.90 1019.75 1019.60 1019.44 1019.26 1019.03 1018.74 1018.39 1017.97 1017.53 1017.08 1016.66 1016.31 1016.04 1015.87 1015.78 1015.74 1015.73 1015.70 1015.62 1015.47 1015.24 1014.95 1014.61 1014.26 1013.91 1013.60 1013.32 1013.08 1012.88 1012.69 1012.48 1012.25
1019.87 1019.98 1020.08 1020.15 1020.18 1020.16 1020.08 1019.97 1019.82 1019.65 1019.48 1019.33 1019.18 1019.03 1018.87 1018.68 1018.44 1018.16 1017.83 1017.48 1017.14 1016.83 1016.59 1016.42 1016.33 1016.31 1016.32 1016.34 1016.33 1016.25 1016.11 1015.88 1015.58 1015.25 1014.89 1014.55 1014.24 1013.96 1013.73 1013.52 1013.31 1013.08 1012.83
1019.53 1019.66 1019.76 1019.82 1019.84 1019.80 1019.71 1019.58 1019.42 1019.25 1019.08 1018.93 1018.79 1018.66 1018.53 1018.38 1018.21 1018.00 1017.77 1017.53 1017.31 1017.12 1016.99 1016.92 1016.91 1016.95 1017.00 1017.04 1017.02 1016.94 1016.77 1016.53 1016.22 1015.87 1015.52 1015.18 1014.87 1014.60 1014.37 1014.16 1013.95 1013.72 1013.45
1019.11 1019.25 1019.36 1019.43 1019.45 1019.42 1019.34 1019.22 1019.07 1018.91 1018.76 1018.62 1018.51 1018.41 1018.32 1018.22 1018.11 1017.99 1017.86 1017.73 1017.63 1017.55 1017.52 1017.54 1017.60 1017.68 1017.74 1017.77 1017.74 1017.63 1017.43 1017.16 1016.83 1016.46 1016.10 1015.76 1015.45 1015.19 1014.96 1014.76 1014.55 1014.31 1014.04
1018.63 1018.80 1018.94 1019.02 1019.06 1019.05 1019.00 1018.90 1018.78 1018.66 1018.54 1018.44 1018.36 1018.31 1018.26 1018.23 1018.19 1018.15 1018.11 1018.08 1018.07 1018.09 1018.15 1018.24 1018.34 1018.44 1018.50 1018.51 1018.45 1018.30 1018.06 1017.75 1017.39 1017.01 1016.64 1016.29 1015.98 1015.72 1015.49 1015.28 1015.06 1014.83 1014.56
1018.11 1018.32 1018.49 1018.61 1018.68 1018.71 1018.69 1018.64 1018.57 1018.49 1018.42 1018.38 1018.35 1018.35 1018.36 1018.38 1018.41 1018.44 1018.48 1018.54 1018.61 1018.70 1018.82 1018.95 1019.08 1019.18 1019.24 1019.22 1019.12 1018.93 1018.66 1018.31 1017.93 1017.53 1017.14 1016.78 1016.47 1016.19 1015.95 1015.72 1015.50 1015.25 1014.98
1017.56 1017.81 1018.03 1018.19 1018.31 1018.38 1018.41 1018.41 1018.39 1018.38 1018.37 1018.38 1018.42 1018.48 1018.55 1018.63 1018.72 1018.82 1018.92 1019.04 1019.17 1019.31 1019.47 1019.63 1019.76 1019.86 1019.90 1019.86 1019.73 1019.51 1019.21 1018.85 1018.45 1018.05 1017.65 1017.28 1016.95 1016.66 1016.39 1016.14 1015.88 1015.61 1015.32
1016.99 1017.30 1017.56 1017.78 1017.94 1018.06 1018.14 1018.19 1018.23 1018.28 1018.34 1018.41 1018.52 1018.63 1018.76 1018.91 1019.05 1019.20 1019.35 1019.51 1019.68 1019.86 1020.04 1020.20 1020.35 1020.44 1020.47 1020.41 1020.27 1020.04 1019.74 1019.38 1018.98 1018.58 1018.18 1017.81 1017.47 1017.15 1016.85 1016.55 1016.25 1015.94 1015.60
1016.41 1016.77 1017.09 1017.36 1017.56 1017.72 1017.85 1017.95 1018.05 1018.15 1018.27 1018.42 1018.58 1018.76 1018.95 1019.14 1019.33 1019.52 1019.71 1019.90 1020.09 1020.29 1020.48 1020.66 1020.80 1020.89 1020.92 1020.87 1020.74 1020.52 1020.23 1019.89 1019.52 1019.13 1018.75 1018.38 1018.02 1017.68 1017.34 1016.99 1016.63 1016.26 1015.87
1015.84 1016.25 1016.62 1016.93 1017.18 1017.37 1017.54 1017.68 1017.82 1017.98 1018.16 1018.36 1018.58 1018.81 1019.06 1019.29 1019.52 1019.75 1019.96 1020.17 1020.38 1020.59 1020.79 1020.97 1021.12 1021.23 1021.27 1021.24 1021.13 1020.94 1020.69 1020.39 1020.05 1019.70 1019.34 1018.97 1018.61 1018.24 1017.87 1017.47 1017.05 1016.60 1016.15
1015.28 1015.75 1016.15 1016.50 1016.77 1017.00 1017.20 1017.37 1017.56 1017.76 1017.98 1018.23 1018.51 1018.79 1019.08 1019.36 1019.62 1019.87 1020.11 1020.33 1020.55 1020.77 1020.98 1021.17 1021.34 1021.46 1021.53 1021.53 1021.46 1021.32 1021.11 1020.86 1020.57 1020.25 1019.92 1019.57 1019.21 1018.82 1018.41 1017.96 1017.48 1016.98 1016.45
1014.76 1015.26 1015.70 1016.06 1016.36 1016.61 1016.82 1017.03 1017.24 1017.48 1017.75 1018.05 1018.38 1018.71 1019.04 1019.35 1019.65 1019.92 1020.17 1020.41 1020.64 1020.86 1021.08 1021.29 1021.47 1021.62 1021.72 1021.75 1021.72 1021.63 1021.48 1021.27 1021.03 1020.75 1020.45 1020.12 1019.76 1019.37 1018.93 1018.45 1017.93 1017.36 1016.77
1014.28 1014.80 1015.25 1015.63 1015.94 1016.20 1016.43 1016.65 1016.90 1017.18 1017.49 1017.84 1018.21 1018.59 1018.96 1019.31 1019.63 1019.92 1020.18 1020.43 1020.67 1020.91 1021.14 1021.36 1021.57 1021.74 1021.87 1021.94 1021.95 1021.90 1021.79 1021.62 1021.42 1021.17 1020.90 1020.59 1020.24 1019.85 1019.40 1018.90 1018.34 1017.74 1017.10
Thickness
5662 5663 5664 5665 5666 5667 5667 5668 5668 5668 5669 5669 5670 5671 5672 5673 5673 5674 5675 5675 5675 5675 5676 5676 5676 5675 5675 5674 5673 5672 5671 5670 5669 5668 5667 5666 5665 5665 5664 5663 5663 5662 5662
5655 5656 5657 5658 5659 5660 5661 5661 5662 5662 5662 5663 5664 5665 5666 5667 5668 5669 5669 5670 5670 5670 5671 5671 5671 5671 5671 5670 5669 5668 5667 5666 5666 5665 5664 5663 5662 5661 5660 5659 5659 5658 5658
5648 5649 5650 5651 5652 5653 5654 5655 5656 5656 5656 5657 5658 5659 5660 5662 5663 5663 5664 5664 5664 5665 5665 5666 5666 5666 5666 5666 5665 5665 5664 5663 5662 5661 5660 5659 5658 5657 5656 5656 5655 5654 5654
5640 5641 5642 5643 5644 5646 5647 5648 5649 5649 5649 5650 5651 5652 5654 5655 5657 5657 5658 5658 5658 5659 5659 5660 5660 5661 5661 5661 5661 5660 5660 5659 5658 5657 5656 5655 5654 5653 5652 5652 5651 5650 5650
5632 5633 5633 5635 5636 5638 5639 5640 5641 5641 5642 5643 5644 5646 5647 5649 5650 5651 5651 5652 5652 5652 5653 5653 5654 5654 5655 5655 5655 5655 5655 5655 5654 5653 5651 5651 5650 5649 5648 5648 5647 5647 5646
5623 5624 5625 5626 5628 5629 5630 5631 5632 5633 5633 5634 5637 5639 5640 5642 5643 5644 5644 5645 5645 5645 5645 5646 5646 5647 5648 5648 5649 5649 5649 5649 5649 5648 5647 5646 5645 5644 5644 5643 5643 5643 5643
5615 5616 5617 5617 5618 5620 5620 5622 5623 5624 5624 5625 5627 5629 5633 5634 5635 5636 5636 5636 5637 5637 5637 5637 5637 5638 5639 5640 5641 5641 5642 5642 5642 5642 5641 5641 5640 5640 5639 5639 5639 5639 5639
5606 5607 5607 5608 5609 5609 5610 5612 5612 5613 5613 5614 5615 5617 5619 5623 5625 5627 5627 5627 5627 5627 5628 5628 5628 5628 5629 5630 5631 5632 5633 5633 5635 5635 5635 5634 5634 5634 5634 5634 5634 5634 5634
5597 5597 5598 5599 5599 5599 5600 5601 5601 5602 5602 5602 5603 5603 5606 5609 5611 5615 5616 5616 5616 5616 5617 5617 5617 5618 5618 5619 5621 5622 5623 5624 5625 5627 5627 5627 5627 5627 5628 5628 5628 5628 5628
5587 5588 5588 5589 5589 5589 5589 5590 5591 5591 5591 5592 5592 5592 5593 5594 5595 5601 5603 5604 5605 5604 5605 5606 5606 5606 5607 5608 5609 5611 5613 5614 5615 5617 5618 5619 5620 5620 5620 5621 5621 5621 5622
5578 5578 5579 5579 5579 5580 5580 5580 5580 5580 5580 5581 5581 5581 5581 5582 5583 5585 5590 5592 5592 5593 5594 5595 5595 5595 5596 5597 5598 5600 5601 5603 5604 5606 5609 5610 5610 5611 5612 5612 5613 5614 5614
5568 5569 5569 5570 5569 5569 5570 5570 5570 5569 5569 5570 5570 5570 5570 5571 5572 5572 5576 5578 5580 5582 5582 5583 5584 5584 5585 5586 5587 5589 5590 5591 5593 5596 5598 5599 5600 5601 5602 5604 5605 5605 5606
5559 5559 5559 5559 5559 5559 5559 5559 5559 5559 5559 5559 5559 5559 5559 5560 5560 5561 5563 5566 5568 5570 5572 5572 5573 5573 5574 5574 5576 5577 5579 5581 5583 5585 5587 5589 5590 5591 5592 5593 5595 5596 5597
5550 5550 5550 5549 5549 5549 5549 5549 5548 5548 5548 5548 5548 5548 5548 5548 5548 5549 5551 5553 5556 5559 5560 5561 5561 5561 5562 5562 5564 5566 5568 5570 5572 5574 5576 5577 5579 5580 5581 5582 5584 5586 5587
5540 5540 5540 5539 5539 5538 5538 5538 5538 5537 5537 5537 5537 5536 5536 5537 5537 5538 5539 5540 5542 5547 5551 5550 5549 5549 5549 5550 5552 5554 5556 5559 5561 5563 5565 5567 5568 5569 5571 5572 5573 5575 5575
5530 5529 5529 5528 5528 5528 5527 5527 5527 5527 5526 5526 5525 5525 5525 5525 5526 5526 5527 5528 5529 5532 5537 5539 5536 5536 5536 5538 5540 5541 5544 5547 5549 5551 5554 5555 5557 5558 5560 5561 5562 5563 5565
5519 5518 5518 5517 5517 5517 5516 5516 5516 5516 5515 5515 5514 5513 5513 5514 5514 5514 5515 5516 5517 5518 5522 5525 5524 5524 5524 5525 5528 5530 5532 5534 5537 5539 5541 5543 5545 5546 5548 5549 5551 5551 5553
5510 5508 5507 5506 5506 5506 5506 5505 5505 5505 5504 5504 5503 5502 5503 5503 5503 5503 5504 5505 5505 5506 5507 5511 5511 5511 5511 5512 5514 5517 5520 5522 5524 5527 5529 5531 5533 5534 5536 5537 5539 5540 5541
5500 5498 5497 5496 5495 5495 5495 5494 5494 5494 5493 5493 5492 5492 5491 5491 5491 5492 5492 5494 5494 5495 5495 5497 5499 5498 5498 5499 5501 5504 5507 5510 5512 5515 5517 5519 5521 5522 5524 5525 5526 5528 5529
5489 5488 5486 5485 5485 5485 5484 5484 5483 5482 5482 5481 5481 5481 5481 5480 5481 5481 5481 5482 5483 5483 5483 5485 5486 5486 5486 5487 5488 5490 5494 5497 5499 5502 5504 5506 5508 5510 5511 5512 5514 5515 5516
5479 5477 5476 5475 5474 5473 5473 5473 5472 5472 5471 5471 5470 5470 5470 5470 5471 5471 5471 5471 5470 5470 5471 5472 5473 5474 5474 5474 5476 5477 5480 5483 5487 5489 5491 5493 5495 5497 5498 5498 5500 5501 5503
5468 5466 5465 5464 5464 5464 5464 5464 5462 5461 5461 5460 5460 5460 5460 5460 5461 5462 5461 5461 5460 5459 5460 5460 5461 5462 5463 5463 5463 5465 5466 5469 5474 5476 5476 5480 5482 5483 5485 5486 5488 5490 5492
5458 5457 5456 5455 5454 5454 5455 5455 5454 5451 5451 5450 5449 5450 5451 5451 5451 5451 5451 5451 5450 5450 5450 5449 5449 5450 5450 5451 5452 5453 5454 5455 5458 5460 5462 5467 5468 5470 5472 5474 5476 5478 5480
5449 5448 5447 5446 5445 5445 5446 5446 5445 5443 5441 5440 5440 5440 5441 5441 5441 5441 5440 5440 5440 5440 5440 5440 5440 5440 5440 5440 5441 5442 5442 5443 5445 5446 5447 5450 5454 5456 5460 5462 5463 5465 5466
5441 5439 5438 5437 5437 5437 5437 5437 5436 5433 5432 5431 5431 5431 5431 5431 5432 5432 5431 5430 5430 5430 5430 5429 5429 5429 5430 5430 5430 5429 5429 5430 5433 5434 5434 5436 5440 5443 5447 5449 5450 5451 5452
5433 5431 5430 5429 5428 5428 5428 5428 5427 5425 5424 5423 5423 5423 5423 5423 5423 5422 5421 5420 5419 5419 5418 5418 5418 5417 5417 5418 5418 5417 5418 5418 5419 5421 5422 5423 5425 5427 5432 5436 5436 5436 5437